This is the latest recevied weather packets stored in our database for station/object KC3WWU. If no packets are shown the sender has not sent any weather packets the latest 10 day(s).
| Time | Temp. | Humidity | Pressure | Rain* | Wind** | Luminosity | Snow |
|---|---|---|---|---|---|---|---|
| 1778119287 | 7.78° C | 82% | 1009.6 hPa | 0 mm | - | 0 W/m² | - |
| 1778118986 | 7.78° C | 85% | 1010 hPa | 0 mm | - | 0 W/m² | - |
| 1778118683 | 7.78° C | 88% | 1010 hPa | 0 mm | - | 0 W/m² | - |
| 1778118379 | 7.78° C | 89% | 1009.9 hPa | 0 mm | - | 0 W/m² | - |
| 1778118075 | 7.78° C | 93% | 1009.7 hPa | 0 mm | - | 0 W/m² | - |
| 1778117772 | 7.78° C | 91% | 1009.7 hPa | 0 mm | - | 0 W/m² | - |
| 1778117469 | 8.33° C | 93% | 1009.7 hPa | 0 mm | - | 0 W/m² | - |
| 1778117167 | 8.33° C | 93% | 1009.9 hPa | 0 mm | - | 0 W/m² | - |
| 1778116862 | 8.33° C | 91% | 1010.2 hPa | 0 mm | - | 0 W/m² | - |
| 1778116561 | 8.33° C | 92% | 1010.2 hPa | 0 mm | - | 0 W/m² | - |
| 1778116256 | 8.33° C | 92% | 1010.3 hPa | 0 mm | - | 0 W/m² | - |
| 1778115956 | 8.33° C | 92% | 1010.2 hPa | 0 mm | - | 0 W/m² | - |
| 1778115652 | 8.33° C | 92% | 1010.3 hPa | 0 mm | - | 0 W/m² | - |
| 1778115350 | 8.89° C | 92% | 1010.3 hPa | 0 mm | - | 0 W/m² | - |
| 1778115046 | 8.89° C | 92% | 1010.2 hPa | 0 mm | - | 0 W/m² | - |
| 1778114743 | 8.89° C | 92% | 1010.4 hPa | 0 mm | - | 0 W/m² | - |
| 1778114441 | 8.89° C | 90% | 1010.3 hPa | 0 mm | - | 0 W/m² | - |
| 1778114137 | 8.89° C | 92% | 1010 hPa | 0 mm | - | 0 W/m² | - |
| 1778113832 | 8.89° C | 93% | 1009.8 hPa | 0 mm | - | 0 W/m² | - |
| 1778113529 | 8.89° C | 93% | 1009.9 hPa | 0 mm | - | 0 W/m² | - |
| 1778113225 | 8.89° C | 92% | 1010.3 hPa | 0 mm | - | 0 W/m² | - |
| 1778112921 | 8.89° C | 91% | 1009.9 hPa | 0 mm | - | 1 W/m² | - |
| 1778112619 | 8.89° C | 91% | 1009.8 hPa | 0 mm | - | 1 W/m² | - |
| 1778112314 | 8.89° C | 91% | 1009.8 hPa | 0 mm | - | 3 W/m² | - |
| 1778112010 | 8.89° C | 92% | 1009.6 hPa | 0 mm | - | 5 W/m² | - |
* Rain latest hour (hover to see other rain measurements)
** Current wind speed in m/s (hover to see current wind gust speed)